Time,TemperatureF,DewpointF,PressureIn,WindDirection,WindDirectionDegrees,WindSpeedMPH,WindSpeedGustMPH,Humidity,HourlyPrecipIn,Conditions,Clouds,dailyrainin,SoftwareType,DateUTC
2013-03-11 00:00:00,48.9,34.1,30.03,SSW,203,1.1,3.8,56,0.00,,,0.00,WSDL version 420,2013-03-11 07:00:00,
2013-03-11 00:05:00,48.8,33.9,30.03,SSW,203,0.0,2.2,56,0.00,,,0.00,WSDL version 420,2013-03-11 07:05:00,
2013-03-11 00:10:00,48.7,33.8,30.03,SSW,203,0.0,0.0,56,0.00,,,0.00,WSDL version 420,2013-03-11 07:10:00,
2013-03-11 00:15:00,48.6,33.6,30.06,SSW,203,0.0,0.0,56,0.00,,,0.00,WSDL version 420,2013-03-11 07:15:00,
2013-03-11 00:20:00,48.3,33.2,30.06,SSW,203,0.7,1.6,56,0.00,,,0.00,WSDL version 420,2013-03-11 07:20:00,
2013-03-11 00:25:00,48.2,33.3,30.06,SSW,203,0.0,1.6,56,0.00,,,0.00,WSDL version 420,2013-03-11 07:25:00,
2013-03-11 00:30:00,48.1,33.2,30.03,South,180,0.8,1.6,56,0.00,,,0.00,WSDL version 420,2013-03-11 07:30:00,
2013-03-11 00:35:00,47.9,33.0,30.03,South,180,0.2,1.6,57,0.00,,,0.00,WSDL version 420,2013-03-11 07:35:00,
2013-03-11 00:40:00,47.7,33.1,30.03,South,180,0.0,1.6,56,0.00,,,0.00,WSDL version 420,2013-03-11 07:40:00,
2013-03-11 00:45:00,47.5,33.0,30.03,SSE,160,0.3,2.2,57,0.00,,,0.00,WSDL version 420,2013-03-11 07:45:00,
2013-03-11 00:50:00,47.4,32.9,30.03,SSW,197,0.0,2.2,57,0.00,,,0.00,WSDL version 420,2013-03-11 07:50:00,
2013-03-11 00:55:00,47.2,32.9,30.03,SSW,203,1.5,2.7,57,0.00,,,0.00,WSDL version 420,2013-03-11 07:55:00,
2013-03-11 01:00:00,47.0,32.9,30.03,SSW,197,2.6,2.9,58,0.00,,,0.00,WSDL version 420,2013-03-11 08:00:00,
2013-03-11 01:05:00,46.9,33.5,30.03,SSE,168,1.9,2.9,60,0.00,,,0.00,WSDL version 420,2013-03-11 08:05:00,
2013-03-11 01:10:00,46.9,34.3,30.03,South,188,2.3,3.6,62,0.00,,,0.00,WSDL version 420,2013-03-11 08:10:00,
2013-03-11 01:15:00,46.9,34.7,30.03,South,174,2.3,3.6,63,0.00,,,0.00,WSDL version 420,2013-03-11 08:15:00,
2013-03-11 01:25:00,46.7,34.6,30.03,SSW,203,0.0,4.3,62,0.00,,,0.00,WSDL version 420,2013-03-11 08:25:00,
2013-03-11 01:30:00,46.6,34.3,30.03,South,175,0.0,2.0,62,0.00,,,0.00,WSDL version 420,2013-03-11 08:30:00,
2013-03-11 01:35:00,46.4,34.1,30.03,South,183,0.6,2.5,61,0.00,,,0.00,WSDL version 420,2013-03-11 08:35:00,
2013-03-11 01:40:00,46.2,33.8,30.03,South,180,1.5,2.7,62,0.00,,,0.00,WSDL version 420,2013-03-11 08:40:00,
2013-03-11 01:50:00,46.0,34.8,30.03,SSW,203,0.4,3.4,65,0.00,,,0.00,WSDL version 420,2013-03-11 08:50:00,
2013-03-11 01:55:00,46.0,34.6,30.03,SSW,203,0.0,3.4,64,0.00,,,0.00,WSDL version 420,2013-03-11 08:55:00,
2013-03-11 02:00:00,45.9,34.5,30.03,SSW,203,0.0,0.0,64,0.00,,,0.00,WSDL version 420,2013-03-11 09:00:00,
2013-03-11 02:05:00,45.9,34.4,30.03,SSW,203,0.0,0.0,64,0.00,,,0.00,WSDL version 420,2013-03-11 09:05:00,
2013-03-11 02:10:00,45.8,34.0,30.03,SSW,203,0.3,2.0,63,0.00,,,0.00,WSDL version 420,2013-03-11 09:10:00,
2013-03-11 02:15:00,45.5,33.6,30.03,SSW,203,0.0,2.5,63,0.00,,,0.00,WSDL version 420,2013-03-11 09:15:00,
2013-03-11 02:20:00,45.5,33.6,30.03,SSW,203,0.0,2.5,63,0.00,,,0.00,WSDL version 420,2013-03-11 09:20:00,
2013-03-11 02:25:00,45.5,33.6,30.03,SSW,203,0.0,0.0,63,0.00,,,0.00,WSDL version 420,2013-03-11 09:25:00,
2013-03-11 02:30:00,45.4,33.7,30.06,SSW,203,0.0,0.0,63,0.00,,,0.00,WSDL version 420,2013-03-11 09:30:00,
2013-03-11 02:35:00,45.3,33.8,30.06,SSW,203,0.0,0.0,63,0.00,,,0.00,WSDL version 420,2013-03-11 09:35:00,
2013-03-11 02:40:00,45.1,33.5,30.06,South,180,0.0,0.0,64,0.00,,,0.00,WSDL version 420,2013-03-11 09:40:00,
2013-03-11 02:45:00,44.9,33.1,30.03,SSE,163,0.8,2.7,62,0.00,,,0.00,WSDL version 420,2013-03-11 09:45:00,
2013-03-11 02:50:00,44.7,33.0,30.03,SSE,158,0.7,2.7,64,0.00,,,0.00,WSDL version 420,2013-03-11 09:50:00,
2013-03-11 02:55:00,44.6,33.3,30.03,SSE,158,0.0,2.2,64,0.00,,,0.00,WSDL version 420,2013-03-11 09:55:00,
2013-03-11 03:00:00,44.5,32.9,30.03,South,170,1.6,2.7,63,0.00,,,0.00,WSDL version 420,2013-03-11 10:00:00,
2013-03-11 03:05:00,44.3,32.9,30.03,South,178,2.7,3.4,65,0.00,,,0.00,WSDL version 420,2013-03-11 10:05:00,
2013-03-11 03:10:00,44.2,33.6,30.03,South,186,1.9,3.4,66,0.00,,,0.00,WSDL version 420,2013-03-11 10:10:00,
2013-03-11 03:15:00,44.2,33.7,30.03,South,190,1.6,3.4,66,0.00,,,0.00,WSDL version 420,2013-03-11 10:15:00,
2013-03-11 03:20:00,44.2,33.6,30.03,SSW,203,0.0,2.9,66,0.00,,,0.00,WSDL version 420,2013-03-11 10:20:00,
2013-03-11 03:25:00,44.2,33.3,30.03,South,180,0.9,1.6,66,0.00,,,0.00,WSDL version 420,2013-03-11 10:25:00,
2013-03-11 03:30:00,44.1,33.4,30.03,South,180,0.0,2.0,66,0.00,,,0.00,WSDL version 420,2013-03-11 10:30:00,
2013-03-11 03:35:00,44.1,33.4,30.03,South,177,0.0,2.0,66,0.00,,,0.00,WSDL version 420,2013-03-11 10:35:00,
2013-03-11 03:40:00,44.0,33.3,30.03,ESE,105,1.6,2.5,65,0.00,,,0.00,WSDL version 420,2013-03-11 10:40:00,
2013-03-11 03:45:00,43.6,32.7,30.03,South,183,1.8,2.7,65,0.00,,,0.00,WSDL version 420,2013-03-11 10:45:00,
2013-03-11 03:50:00,43.5,32.9,30.03,South,180,1.0,2.7,66,0.00,,,0.00,WSDL version 420,2013-03-11 10:50:00,
2013-03-11 03:55:00,43.5,32.9,30.03,South,180,0.2,2.7,66,0.00,,,0.00,WSDL version 420,2013-03-11 10:55:00,
2013-03-11 04:00:00,43.5,32.9,30.03,South,180,0.2,2.0,66,0.00,,,0.00,WSDL version 420,2013-03-11 11:00:00,
2013-03-11 04:05:00,43.3,32.8,30.03,South,180,0.2,2.0,66,0.00,,,0.00,WSDL version 420,2013-03-11 11:05:00,
2013-03-11 04:10:00,43.3,32.9,30.03,SSE,155,0.0,2.0,67,0.00,,,0.00,WSDL version 420,2013-03-11 11:10:00,
2013-03-11 04:15:00,43.3,33.1,30.03,SSE,168,1.2,2.2,67,0.00,,,0.00,WSDL version 420,2013-03-11 11:15:00,
2013-03-11 04:20:00,43.3,32.9,30.03,SE,139,1.6,2.5,67,0.00,,,0.00,WSDL version 420,2013-03-11 11:20:00,
2013-03-11 04:25:00,43.1,32.9,30.03,ESE,123,1.9,2.7,67,0.00,,,0.00,WSDL version 420,2013-03-11 11:25:00,
2013-03-11 04:30:00,43.0,32.8,30.03,SE,138,1.8,3.1,67,0.00,,,0.00,WSDL version 420,2013-03-11 11:30:00,
2013-03-11 04:35:00,43.0,33.1,30.03,South,180,1.6,3.1,68,0.00,,,0.00,WSDL version 420,2013-03-11 11:35:00,
2013-03-11 04:40:00,43.0,33.2,30.03,SSE,160,1.3,2.5,68,0.00,,,0.00,WSDL version 420,2013-03-11 11:40:00,
2013-03-11 04:45:00,43.0,33.2,30.03,South,180,0.0,2.0,68,0.00,,,0.00,WSDL version 420,2013-03-11 11:45:00,
2013-03-11 04:50:00,43.0,33.2,30.03,South,180,0.9,2.0,68,0.00,,,0.00,WSDL version 420,2013-03-11 11:50:00,
2013-03-11 04:55:00,43.0,33.2,30.03,South,186,1.0,2.5,68,0.00,,,0.00,WSDL version 420,2013-03-11 11:55:00,
2013-03-11 05:00:00,43.0,33.2,30.03,South,180,0.3,2.5,68,0.00,,,0.00,WSDL version 420,2013-03-11 12:00:00,
2013-03-11 05:05:00,42.8,33.0,30.03,South,180,1.9,2.7,68,0.00,,,0.00,WSDL version 420,2013-03-11 12:05:00,
2013-03-11 05:10:00,42.8,33.0,30.03,South,183,0.5,2.7,68,0.00,,,0.00,WSDL version 420,2013-03-11 12:10:00,
2013-03-11 05:15:00,43.0,33.2,30.03,SE,140,3.0,3.6,69,0.00,,,0.00,WSDL version 420,2013-03-11 12:15:00,
2013-03-11 05:20:00,43.0,33.5,30.03,SSE,155,2.1,3.6,69,0.00,,,0.00,WSDL version 420,2013-03-11 12:20:00,
2013-03-11 05:25:00,43.0,33.6,30.03,SSE,166,2.0,3.4,69,0.00,,,0.00,WSDL version 420,2013-03-11 12:25:00,
2013-03-11 05:30:00,43.0,33.5,30.03,SE,132,2.1,2.9,69,0.00,,,0.00,WSDL version 420,2013-03-11 12:30:00,
2013-03-11 05:35:00,42.9,33.0,30.03,ESE,120,2.6,3.8,68,0.00,,,0.00,WSDL version 420,2013-03-11 12:35:00,
2013-03-11 05:40:00,42.7,33.0,30.03,SE,129,1.8,3.8,69,0.00,,,0.00,WSDL version 420,2013-03-11 12:40:00,
2013-03-11 05:45:00,42.6,33.1,30.03,SE,130,2.0,3.4,69,0.00,,,0.00,WSDL version 420,2013-03-11 12:45:00,
2013-03-11 05:50:00,42.4,32.9,30.03,ESE,115,2.4,3.4,69,0.00,,,0.00,WSDL version 420,2013-03-11 12:50:00,
2013-03-11 05:55:00,42.3,32.7,30.03,ESE,115,2.6,3.4,68,0.00,,,0.00,WSDL version 420,2013-03-11 12:55:00,
2013-03-11 06:00:00,42.3,32.8,30.03,SE,130,2.4,3.4,69,0.00,,,0.00,WSDL version 420,2013-03-11 13:00:00,
2013-03-11 06:05:00,42.4,33.1,30.03,SE,132,2.2,3.1,70,0.00,,,0.00,WSDL version 420,2013-03-11 13:05:00,
2013-03-11 06:10:00,42.6,33.5,30.03,ESE,118,2.4,3.6,70,0.00,,,0.00,WSDL version 420,2013-03-11 13:10:00,
2013-03-11 06:15:00,42.5,33.3,30.03,SE,135,1.4,3.6,69,0.00,,,0.00,WSDL version 420,2013-03-11 13:15:00,
2013-03-11 06:20:00,42.4,33.2,30.03,East,98,2.2,3.1,70,0.00,,,0.00,WSDL version 420,2013-03-11 13:20:00,
2013-03-11 06:25:00,42.4,33.1,30.03,SE,125,2.5,3.4,69,0.00,,,0.00,WSDL version 420,2013-03-11 13:25:00,
2013-03-11 06:30:00,42.3,32.9,30.03,ESE,121,2.1,3.4,69,0.00,,,0.00,WSDL version 420,2013-03-11 13:30:00,
2013-03-11 06:35:00,42.3,33.1,30.03,ESE,105,2.6,3.6,70,0.00,,,0.00,WSDL version 420,2013-03-11 13:35:00,
2013-03-11 06:40:00,42.3,33.1,30.03,ESE,107,2.9,3.6,70,0.00,,,0.00,WSDL version 420,2013-03-11 13:40:00,
2013-03-11 06:45:00,42.3,32.8,30.03,ESE,120,2.4,3.6,69,0.00,,,0.00,WSDL version 420,2013-03-11 13:45:00,
2013-03-11 06:50:00,42.3,33.1,30.03,SSE,163,2.1,3.1,71,0.00,,,0.00,WSDL version 420,2013-03-11 13:50:00,
2013-03-11 06:55:00,42.3,33.5,30.03,SE,130,1.9,3.1,71,0.00,,,0.00,WSDL version 420,2013-03-11 13:55:00,
2013-03-11 07:00:00,42.3,33.5,30.03,ESE,118,2.6,3.4,71,0.00,,,0.00,WSDL version 420,2013-03-11 14:00:00,
2013-03-11 07:05:00,42.3,33.5,30.03,ESE,110,2.8,3.8,71,0.00,,,0.00,WSDL version 420,2013-03-11 14:05:00,
2013-03-11 07:10:00,42.3,33.3,30.03,East,100,3.3,3.8,70,0.00,,,0.00,WSDL version 420,2013-03-11 14:10:00,
2013-03-11 07:15:00,42.3,33.6,30.03,SE,129,1.7,3.8,72,0.00,,,0.00,WSDL version 420,2013-03-11 14:15:00,
2013-03-11 07:20:00,42.4,34.1,30.03,ESE,108,3.0,3.4,72,0.00,,,0.00,WSDL version 420,2013-03-11 14:20:00,
2013-03-11 07:25:00,42.6,34.2,30.03,East,101,2.5,3.4,72,0.00,,,0.00,WSDL version 420,2013-03-11 14:25:00,
2013-03-11 07:30:00,42.6,34.3,30.03,ESE,113,0.3,3.1,73,0.00,,,0.00,WSDL version 420,2013-03-11 14:30:00,
2013-03-11 07:35:00,42.8,34.7,30.03,SE,135,0.0,2.5,73,0.00,,,0.00,WSDL version 420,2013-03-11 14:35:00,
2013-03-11 07:40:00,42.8,34.8,30.03,SSE,158,0.8,2.0,73,0.00,,,0.00,WSDL version 420,2013-03-11 14:40:00,
2013-03-11 07:45:00,43.0,34.9,30.03,SSE,158,0.0,2.0,73,0.00,,,0.00,WSDL version 420,2013-03-11 14:45:00,
2013-03-11 07:50:00,43.1,35.3,30.03,SE,132,2.1,2.9,74,0.00,,,0.00,WSDL version 420,2013-03-11 14:50:00,
2013-03-11 07:55:00,43.4,36.1,30.03,SSE,166,0.8,2.9,76,0.00,,,0.00,WSDL version 420,2013-03-11 14:55:00,
2013-03-11 08:00:00,43.8,36.9,30.03,SSE,166,1.9,2.9,77,0.00,,,0.00,WSDL version 420,2013-03-11 15:00:00,
2013-03-11 08:05:00,44.1,37.3,30.03,SSW,203,0.6,2.9,76,0.00,,,0.00,WSDL version 420,2013-03-11 15:05:00,
2013-03-11 08:10:00,44.3,37.3,30.03,South,185,0.2,2.5,76,0.00,,,0.00,WSDL version 420,2013-03-11 15:10:00,
2013-03-11 08:15:00,44.6,37.3,30.03,South,190,0.0,1.6,76,0.00,,,0.00,WSDL version 420,2013-03-11 15:15:00,
2013-03-11 08:20:00,44.8,37.5,30.03,East,90,1.9,2.5,75,0.00,,,0.00,WSDL version 420,2013-03-11 15:20:00,
2013-03-11 08:25:00,45.2,37.7,30.03,East,90,1.9,2.5,75,0.00,,,0.00,WSDL version 420,2013-03-11 15:25:00,
2013-03-11 08:30:00,45.6,38.1,30.03,East,90,0.9,2.5,75,0.00,,,0.00,WSDL version 420,2013-03-11 15:30:00,
2013-03-11 08:35:00,46.0,38.2,30.03,East,90,0.9,2.0,74,0.00,,,0.00,WSDL version 420,2013-03-11 15:35:00,
2013-03-11 08:40:00,46.4,38.6,30.03,East,83,1.2,2.0,74,0.00,,,0.00,WSDL version 420,2013-03-11 15:40:00,
2013-03-11 08:45:00,47.2,39.4,30.03,East,85,1.0,2.0,74,0.00,,,0.00,WSDL version 420,2013-03-11 15:45:00,
2013-03-11 08:50:00,48.9,41.1,30.03,East,87,1.5,2.2,76,0.00,,,0.00,WSDL version 420,2013-03-11 15:50:00,
2013-03-11 08:55:00,50.8,43.5,30.03,NE,53,0.2,2.2,76,0.00,,,0.00,WSDL version 420,2013-03-11 15:55:00,
2013-03-11 09:00:00,51.7,44.0,30.06,NNW,332,0.4,1.6,74,0.00,,,0.00,WSDL version 420,2013-03-11 16:00:00,
2013-03-11 09:05:00,52.2,43.3,30.06,NNW,335,0.0,2.0,69,0.00,,,0.00,WSDL version 420,2013-03-11 16:05:00,
2013-03-11 09:10:00,52.9,42.4,30.06,NW,315,0.0,2.0,67,0.00,,,0.00,WSDL version 420,2013-03-11 16:10:00,
2013-03-11 09:15:00,53.1,40.5,30.03,NNW,330,2.6,3.4,59,0.00,,,0.00,WSDL version 420,2013-03-11 16:15:00,
2013-03-11 09:20:00,53.2,39.0,30.03,NNW,343,2.3,3.4,58,0.00,,,0.00,WSDL version 420,2013-03-11 16:20:00,
2013-03-11 09:25:00,53.3,38.6,30.03,NNW,338,1.6,3.1,58,0.00,,,0.00,WSDL version 420,2013-03-11 16:25:00,
2013-03-11 09:30:00,53.6,39.0,30.03,NW,318,2.1,3.1,58,0.00,,,0.00,WSDL version 420,2013-03-11 16:30:00,
2013-03-11 09:35:00,53.9,39.8,30.03,WNW,284,1.1,3.1,59,0.00,,,0.00,WSDL version 420,2013-03-11 16:35:00,
2013-03-11 09:40:00,54.2,40.2,30.03,NNW,348,2.2,3.1,59,0.00,,,0.00,WSDL version 420,2013-03-11 16:40:00,
2013-03-11 09:45:00,53.9,40.2,30.03,NNW,332,2.7,3.4,60,0.00,,,0.00,WSDL version 420,2013-03-11 16:45:00,
2013-03-11 09:50:00,53.9,41.0,30.03,WNW,295,2.2,3.8,62,0.00,,,0.00,WSDL version 420,2013-03-11 16:50:00,
2013-03-11 09:55:00,54.0,41.5,30.03,NNW,333,2.3,3.8,63,0.00,,,0.00,WSDL version 420,2013-03-11 16:55:00,
2013-03-11 10:00:00,53.8,41.5,30.03,NNW,341,2.5,3.8,63,0.00,,,0.00,WSDL version 420,2013-03-11 17:00:00,
2013-03-11 10:05:00,53.4,41.4,30.03,NNW,343,2.2,3.8,64,0.00,,,0.00,WSDL version 420,2013-03-11 17:05:00,
2013-03-11 10:10:00,53.7,42.0,30.03,NNW,335,2.0,3.6,65,0.00,,,0.00,WSDL version 420,2013-03-11 17:10:00,
2013-03-11 10:15:00,54.1,42.2,30.03,NNW,340,2.3,2.9,64,0.00,,,0.00,WSDL version 420,2013-03-11 17:15:00,
2013-03-11 10:20:00,54.5,42.6,30.03,NW,315,2.7,3.6,65,0.00,,,0.00,WSDL version 420,2013-03-11 17:20:00,
2013-03-11 10:25:00,54.0,43.0,30.03,NNW,343,3.6,5.4,67,0.00,,,0.00,WSDL version 420,2013-03-11 17:25:00,
2013-03-11 10:30:00,53.5,43.1,30.03,NNW,330,2.9,5.4,68,0.00,,,0.00,WSDL version 420,2013-03-11 17:30:00,
2013-03-11 10:35:00,53.2,43.2,30.03,NW,318,3.5,4.9,69,0.00,,,0.00,WSDL version 420,2013-03-11 17:35:00,
2013-03-11 10:40:00,53.1,43.2,30.03,NNW,343,2.8,4.9,69,0.00,,,0.00,WSDL version 420,2013-03-11 17:40:00,
2013-03-11 10:47:00,53.5,43.6,30.03,NNW,338,3.0,4.3,69,0.00,,,0.00,WSDL version 420,2013-03-11 17:47:00,
2013-03-11 10:54:00,53.7,43.4,30.03,NW,321,3.0,4.3,68,0.00,,,0.00,WSDL version 420,2013-03-11 17:54:00,
2013-03-11 10:59:00,54.3,43.8,30.03,NW,315,3.0,4.3,67,0.00,,,0.00,WSDL version 420,2013-03-11 17:59:00,
2013-03-11 11:04:00,54.4,43.9,30.03,NW,309,2.6,4.3,68,0.00,,,0.00,WSDL version 420,2013-03-11 18:04:00,
2013-03-11 11:09:00,54.8,44.4,30.03,NNW,335,3.6,5.4,67,0.00,,,0.00,WSDL version 420,2013-03-11 18:09:00,
2013-03-11 11:14:00,54.8,44.1,30.03,NNW,329,2.4,5.4,68,0.00,,,0.00,WSDL version 420,2013-03-11 18:14:00,
2013-03-11 11:19:00,55.0,44.7,30.03,North,355,3.2,5.4,68,0.00,,,0.00,WSDL version 420,2013-03-11 18:19:00,
2013-03-11 11:24:00,55.6,45.0,30.03,NNW,330,2.8,5.4,67,0.00,,,0.00,WSDL version 420,2013-03-11 18:24:00,
2013-03-11 11:29:00,56.0,44.7,30.03,NNW,346,3.3,5.4,65,0.00,,,0.00,WSDL version 420,2013-03-11 18:29:00,
2013-03-11 11:34:00,56.2,44.5,30.03,NNW,345,3.2,5.4,63,0.00,,,0.00,WSDL version 420,2013-03-11 18:34:00,
2013-03-11 11:39:00,56.3,44.1,30.03,NNW,346,2.9,4.9,64,0.00,,,0.00,WSDL version 420,2013-03-11 18:39:00,
2013-03-11 11:44:00,56.8,44.1,30.03,North,355,3.8,5.6,61,0.00,,,0.00,WSDL version 420,2013-03-11 18:44:00,
2013-03-11 11:49:00,56.9,43.2,30.03,North,8,3.2,5.6,60,0.00,,,0.00,WSDL version 420,2013-03-11 18:49:00,
2013-03-11 11:54:00,57.6,43.4,30.03,NNW,338,2.9,4.0,59,0.00,,,0.00,WSDL version 420,2013-03-11 18:54:00,
2013-03-11 11:59:00,58.3,43.9,30.03,WNW,288,2.2,4.3,59,0.00,,,0.00,WSDL version 420,2013-03-11 18:59:00,
2013-03-11 12:04:00,59.3,44.2,30.00,NNW,338,3.0,5.6,56,0.00,,,0.00,WSDL version 420,2013-03-11 19:04:00,
2013-03-11 12:09:00,59.5,43.3,30.00,NW,320,3.2,5.6,54,0.00,,,0.00,WSDL version 420,2013-03-11 19:09:00,
2013-03-11 12:14:00,60.2,43.9,30.00,NNW,332,2.4,5.4,54,0.00,,,0.00,WSDL version 420,2013-03-11 19:14:00,
2013-03-11 12:24:00,61.8,43.9,30.00,NW,326,2.8,4.3,51,0.00,,,0.00,WSDL version 420,2013-03-11 19:24:00,
2013-03-11 12:29:00,62.7,44.1,30.00,NW,323,2.2,4.3,50,0.00,,,0.00,WSDL version 420,2013-03-11 19:29:00,
2013-03-11 12:34:00,63.4,44.0,30.00,West,273,2.7,4.3,49,0.00,,,0.00,WSDL version 420,2013-03-11 19:34:00,
2013-03-11 12:39:00,63.2,42.9,30.00,NNW,332,3.5,6.0,47,0.00,,,0.00,WSDL version 420,2013-03-11 19:39:00,
2013-03-11 12:44:00,63.6,43.1,30.00,NNW,338,2.4,6.0,46,0.00,,,0.00,WSDL version 420,2013-03-11 19:44:00,
2013-03-11 12:49:00,64.4,43.2,29.97,North,349,2.7,4.0,46,0.00,,,0.00,WSDL version 420,2013-03-11 19:49:00,
2013-03-11 12:54:00,64.8,42.9,29.97,NW,313,2.6,5.6,45,0.00,,,0.00,WSDL version 420,2013-03-11 19:54:00,
2013-03-11 12:59:00,64.9,43.1,29.97,NW,326,3.4,5.6,45,0.00,,,0.00,WSDL version 420,2013-03-11 19:59:00,
2013-03-11 13:04:00,64.4,42.4,29.97,NW,318,4.3,6.5,44,0.00,,,0.00,WSDL version 420,2013-03-11 20:04:00,
2013-03-11 13:09:00,63.8,41.6,29.97,NNW,330,3.3,6.5,45,0.00,,,0.00,WSDL version 420,2013-03-11 20:09:00,
2013-03-11 13:14:00,64.5,42.6,29.97,NNW,343,3.3,4.9,44,0.00,,,0.00,WSDL version 420,2013-03-11 20:14:00,
2013-03-11 13:19:00,64.4,42.0,29.97,NNW,333,3.1,4.9,44,0.00,,,0.00,WSDL version 420,2013-03-11 20:19:00,
2013-03-11 13:24:00,64.8,42.4,29.97,North,349,3.2,4.7,44,0.00,,,0.00,WSDL version 420,2013-03-11 20:24:00,
2013-03-11 13:29:00,65.2,42.4,29.97,NNW,333,3.3,4.3,44,0.00,,,0.00,WSDL version 420,2013-03-11 20:29:00,
2013-03-11 13:34:00,65.7,43.2,29.97,NW,309,3.3,5.4,44,0.00,,,0.00,WSDL version 420,2013-03-11 20:34:00,
2013-03-11 13:42:00,65.3,42.3,29.97,NNW,329,3.6,5.4,43,0.00,,,0.00,WSDL version 420,2013-03-11 20:42:00,
2013-03-11 13:47:00,65.2,41.9,29.94,NNW,330,3.4,5.4,43,0.00,,,0.00,WSDL version 420,2013-03-11 20:47:00,
2013-03-11 13:52:00,65.2,41.8,29.94,NW,323,3.2,5.4,43,0.00,,,0.00,WSDL version 420,2013-03-11 20:52:00,
2013-03-11 13:57:00,65.6,42.2,29.94,NW,310,2.8,4.9,42,0.00,,,0.00,WSDL version 420,2013-03-11 20:57:00,
2013-03-11 14:02:00,65.4,42.0,29.97,NW,323,2.3,5.6,43,0.00,,,0.00,WSDL version 420,2013-03-11 21:02:00,
2013-03-11 14:07:00,65.6,41.4,29.97,NNW,333,2.7,5.6,41,0.00,,,0.00,WSDL version 420,2013-03-11 21:07:00,
2013-03-11 14:12:00,65.5,41.3,29.97,NW,313,2.8,4.3,42,0.00,,,0.00,WSDL version 420,2013-03-11 21:12:00,
2013-03-11 14:17:00,65.7,40.8,29.94,NW,318,3.2,4.7,40,0.00,,,0.00,WSDL version 420,2013-03-11 21:17:00,
2013-03-11 14:22:00,65.9,40.5,29.94,NNW,333,3.0,4.7,39,0.00,,,0.00,WSDL version 420,2013-03-11 21:22:00,
2013-03-11 14:27:00,66.5,40.7,29.94,NNW,340,1.7,4.7,39,0.00,,,0.00,WSDL version 420,2013-03-11 21:27:00,
2013-03-11 14:32:00,66.9,40.6,29.94,NW,318,2.4,4.7,38,0.00,,,0.00,WSDL version 420,2013-03-11 21:32:00,
2013-03-11 14:37:00,67.1,40.6,29.94,NW,321,3.6,4.7,37,0.00,,,0.00,WSDL version 420,2013-03-11 21:37:00,
2013-03-11 14:42:00,67.6,41.0,29.94,West,278,2.2,4.7,38,0.00,,,0.00,WSDL version 420,2013-03-11 21:42:00,
2013-03-11 14:47:00,68.5,41.4,29.94,WNW,295,3.2,4.7,37,0.00,,,0.00,WSDL version 420,2013-03-11 21:47:00,
2013-03-11 14:52:00,68.8,41.1,29.94,WNW,295,3.1,4.7,36,0.00,,,0.00,WSDL version 420,2013-03-11 21:52:00,
2013-03-11 14:57:00,69.2,41.1,29.94,WNW,283,2.9,4.0,36,0.00,,,0.00,WSDL version 420,2013-03-11 21:57:00,
2013-03-11 15:02:00,69.7,41.3,29.94,NNW,346,3.0,4.3,35,0.00,,,0.00,WSDL version 420,2013-03-11 22:02:00,
2013-03-11 15:07:00,70.2,40.8,29.94,NW,308,2.8,4.7,34,0.00,,,0.00,WSDL version 420,2013-03-11 22:07:00,
2013-03-11 15:12:00,70.5,40.2,29.94,NW,315,2.8,4.9,33,0.00,,,0.00,WSDL version 420,2013-03-11 22:12:00,
2013-03-11 15:17:00,70.6,39.5,29.94,WNW,300,2.8,5.4,32,0.00,,,0.00,WSDL version 420,2013-03-11 22:17:00,
2013-03-11 15:22:00,71.2,40.0,29.94,West,267,0.8,5.4,32,0.00,,,0.00,WSDL version 420,2013-03-11 22:22:00,
2013-03-11 15:32:00,71.8,39.2,29.91,West,280,2.6,5.4,29,0.00,,,0.00,WSDL version 420,2013-03-11 22:32:00,
2013-03-11 15:37:00,72.1,38.5,29.91,WNW,290,2.8,4.3,30,0.00,,,0.00,WSDL version 420,2013-03-11 22:37:00,
2013-03-11 15:47:00,72.1,40.7,29.91,SW,231,3.6,7.8,32,0.00,,,0.00,WSDL version 420,2013-03-11 22:47:00,
2013-03-11 15:52:00,72.5,41.0,29.91,WSW,240,3.7,7.6,32,0.00,,,0.00,WSDL version 420,2013-03-11 22:52:00,
2013-03-11 15:57:00,73.2,41.4,29.91,SSW,210,2.6,6.0,31,0.00,,,0.00,WSDL version 420,2013-03-11 22:57:00,
2013-03-11 16:02:00,73.4,41.0,29.91,SSW,208,3.7,5.6,31,0.00,,,0.00,WSDL version 420,2013-03-11 23:02:00,
2013-03-11 16:07:00,73.2,41.2,29.91,SW,214,3.9,6.5,32,0.00,,,0.00,WSDL version 420,2013-03-11 23:07:00,
2013-03-11 16:12:00,72.7,40.9,29.91,SSW,208,3.9,7.4,32,0.00,,,0.00,WSDL version 420,2013-03-11 23:12:00,
2013-03-11 16:17:00,72.2,40.8,29.91,SW,220,4.8,7.8,32,0.00,,,0.00,WSDL version 420,2013-03-11 23:17:00,
2013-03-11 16:22:00,71.7,40.3,29.91,SSW,203,3.8,7.8,32,0.00,,,0.00,WSDL version 420,2013-03-11 23:22:00,
2013-03-11 16:32:00,71.2,39.9,29.91,SW,230,4.3,5.8,32,0.00,,,0.00,WSDL version 420,2013-03-11 23:32:00,
2013-03-11 16:37:00,70.7,39.4,29.91,SSW,205,4.8,6.5,32,0.00,,,0.00,WSDL version 420,2013-03-11 23:37:00,
2013-03-11 16:42:00,70.1,38.9,29.91,SW,233,4.7,8.7,32,0.00,,,0.00,WSDL version 420,2013-03-11 23:42:00,
2013-03-11 16:47:00,69.8,38.6,29.91,SW,214,3.9,8.7,32,0.00,,,0.00,WSDL version 420,2013-03-11 23:47:00,
2013-03-11 16:52:00,69.5,38.4,29.91,SW,218,4.2,6.5,32,0.00,,,0.00,WSDL version 420,2013-03-11 23:52:00,
2013-03-11 16:57:00,69.2,38.1,29.91,SSW,208,5.0,9.6,32,0.00,,,0.00,WSDL version 420,2013-03-11 23:57:00,
2013-03-11 17:02:00,68.7,37.7,29.91,SSW,203,4.9,9.6,32,0.00,,,0.00,WSDL version 420,2013-03-12 00:02:00,
2013-03-11 17:07:00,68.2,37.3,29.91,SSW,203,5.2,8.9,32,0.00,,,0.00,WSDL version 420,2013-03-12 00:07:00,
2013-03-11 17:12:00,68.2,37.2,29.91,SSW,211,3.9,7.6,32,0.00,,,0.00,WSDL version 420,2013-03-12 00:12:00,
2013-03-11 17:17:00,68.1,37.2,29.88,SSW,195,4.7,7.8,32,0.00,,,0.00,WSDL version 420,2013-03-12 00:17:00,
2013-03-11 17:27:00,68.2,38.1,29.88,SSW,200,2.9,4.0,33,0.00,,,0.00,WSDL version 420,2013-03-12 00:27:00,
2013-03-11 17:33:00,68.0,37.6,29.88,SSW,213,3.1,8.1,33,0.00,,,0.00,WSDL version 420,2013-03-12 00:33:00,
2013-03-11 17:38:00,67.6,37.5,29.88,SSW,208,5.1,8.1,33,0.00,,,0.00,WSDL version 420,2013-03-12 00:38:00,
2013-03-11 17:43:00,67.3,37.2,29.88,SSW,211,4.4,7.4,33,0.00,,,0.00,WSDL version 420,2013-03-12 00:43:00,
2013-03-11 17:48:00,67.1,37.0,29.88,SSW,205,4.1,7.6,33,0.00,,,0.00,WSDL version 420,2013-03-12 00:48:00,
2013-03-11 17:53:00,66.8,36.8,29.88,SSW,211,3.1,7.6,33,0.00,,,0.00,WSDL version 420,2013-03-12 00:53:00,
2013-03-11 17:58:00,66.6,36.7,29.88,SSW,205,3.7,7.2,33,0.00,,,0.00,WSDL version 420,2013-03-12 00:58:00,
2013-03-11 18:03:00,66.3,36.4,29.88,SW,219,3.5,7.2,33,0.00,,,0.00,WSDL version 420,2013-03-12 01:03:00,
2013-03-11 18:08:00,66.0,36.6,29.88,SSW,208,4.3,6.3,34,0.00,,,0.00,WSDL version 420,2013-03-12 01:08:00,
2013-03-11 18:13:00,65.7,36.6,29.88,South,185,4.1,6.3,34,0.00,,,0.00,WSDL version 420,2013-03-12 01:13:00,
2013-03-11 18:18:00,65.3,36.5,29.88,SSW,193,3.4,6.5,34,0.00,,,0.00,WSDL version 420,2013-03-12 01:18:00,
2013-03-11 18:23:00,64.9,36.4,29.88,SSW,198,4.1,7.2,35,0.00,,,0.00,WSDL version 420,2013-03-12 01:23:00,
2013-03-11 18:28:00,64.6,36.4,29.88,SSW,199,2.5,7.2,35,0.00,,,0.00,WSDL version 420,2013-03-12 01:28:00,
2013-03-11 18:33:00,64.4,36.2,29.88,SSW,200,2.7,5.4,35,0.00,,,0.00,WSDL version 420,2013-03-12 01:33:00,
2013-03-11 18:38:00,64.2,36.0,29.88,South,188,2.4,4.9,35,0.00,,,0.00,WSDL version 420,2013-03-12 01:38:00,
2013-03-11 18:43:00,64.0,35.9,29.88,SSW,205,2.3,4.3,35,0.00,,,0.00,WSDL version 420,2013-03-12 01:43:00,
2013-03-11 18:48:00,63.8,35.9,29.88,South,178,2.9,4.3,36,0.00,,,0.00,WSDL version 420,2013-03-12 01:48:00,
2013-03-11 18:53:00,63.5,36.1,29.88,SSW,200,2.3,4.3,36,0.00,,,0.00,WSDL version 420,2013-03-12 01:53:00,
2013-03-11 18:58:00,63.2,35.8,29.88,South,175,2.4,4.3,36,0.00,,,0.00,WSDL version 420,2013-03-12 01:58:00,
2013-03-11 19:03:00,62.9,35.5,29.88,SSE,158,2.8,4.7,36,0.00,,,0.00,WSDL version 420,2013-03-12 02:03:00,
2013-03-11 19:08:00,62.5,35.2,29.88,South,190,0.8,4.7,36,0.00,,,0.00,WSDL version 420,2013-03-12 02:08:00,
2013-03-11 19:13:00,62.2,35.0,29.88,SSW,193,0.7,3.1,36,0.00,,,0.00,WSDL version 420,2013-03-12 02:13:00,
2013-03-11 19:18:00,61.8,34.6,29.88,SSW,205,2.9,4.3,36,0.00,,,0.00,WSDL version 420,2013-03-12 02:18:00,
2013-03-11 19:23:00,61.4,34.4,29.88,SSW,210,3.7,5.8,37,0.00,,,0.00,WSDL version 420,2013-03-12 02:23:00,
2013-03-11 19:28:00,60.9,34.6,29.88,SSW,200,2.3,5.8,38,0.00,,,0.00,WSDL version 420,2013-03-12 02:28:00,
2013-03-11 19:33:00,60.4,34.9,29.88,SSW,200,3.8,5.8,39,0.00,,,0.00,WSDL version 420,2013-03-12 02:33:00,
2013-03-11 19:38:00,59.6,35.7,29.88,South,188,3.6,6.9,42,0.00,,,0.00,WSDL version 420,2013-03-12 02:38:00,
2013-03-11 19:43:00,58.9,36.9,29.88,South,175,2.5,6.9,44,0.00,,,0.00,WSDL version 420,2013-03-12 02:43:00,
2013-03-11 19:48:00,58.3,37.4,29.88,SSE,155,2.9,5.4,46,0.00,,,0.00,WSDL version 420,2013-03-12 02:48:00,
2013-03-11 19:53:00,57.8,37.7,29.88,SE,130,2.2,6.5,48,0.00,,,0.00,WSDL version 420,2013-03-12 02:53:00,
2013-03-11 20:03:00,56.8,39.0,29.88,South,169,3.0,6.3,52,0.00,,,0.00,WSDL version 420,2013-03-12 03:03:00,
2013-03-11 20:08:00,56.5,38.9,29.88,SSW,194,2.4,4.9,51,0.00,,,0.00,WSDL version 420,2013-03-12 03:08:00,
2013-03-11 20:13:00,56.2,39.6,29.88,SSE,160,1.8,4.9,54,0.00,,,0.00,WSDL version 420,2013-03-12 03:13:00,
2013-03-11 20:18:00,55.9,39.8,29.88,South,183,2.5,5.8,54,0.00,,,0.00,WSDL version 420,2013-03-12 03:18:00,
2013-03-11 20:23:00,55.7,39.8,29.88,South,174,2.3,5.8,55,0.00,,,0.00,WSDL version 420,2013-03-12 03:23:00,
2013-03-11 20:28:00,55.5,39.9,29.88,SE,138,2.0,4.0,56,0.00,,,0.00,WSDL version 420,2013-03-12 03:28:00,
2013-03-11 20:33:00,55.2,40.7,29.88,SSE,158,3.2,6.5,59,0.00,,,0.00,WSDL version 420,2013-03-12 03:33:00,
2013-03-11 20:38:00,54.8,41.2,29.88,SSE,158,2.8,6.5,61,0.00,,,0.00,WSDL version 420,2013-03-12 03:38:00,
2013-03-11 20:43:00,54.6,41.9,29.88,South,174,3.2,4.3,63,0.00,,,0.00,WSDL version 420,2013-03-12 03:43:00,
2013-03-11 20:48:00,54.4,42.2,29.88,SSE,160,3.0,4.9,63,0.00,,,0.00,WSDL version 420,2013-03-12 03:48:00,
2013-03-11 20:53:00,54.3,42.4,29.88,SSE,163,2.9,6.0,64,0.00,,,0.00,WSDL version 420,2013-03-12 03:53:00,
2013-03-11 20:58:00,54.3,42.4,29.88,South,177,1.9,6.0,64,0.00,,,0.00,WSDL version 420,2013-03-12 03:58:00,
2013-03-11 21:03:00,54.2,42.3,29.88,South,174,1.3,4.0,64,0.00,,,0.00,WSDL version 420,2013-03-12 04:03:00,
2013-03-11 21:08:00,54.1,42.0,29.88,SSW,195,1.4,3.1,63,0.00,,,0.00,WSDL version 420,2013-03-12 04:08:00,
2013-03-11 21:13:00,54.0,41.9,29.88,SSE,166,2.0,3.4,64,0.00,,,0.00,WSDL version 420,2013-03-12 04:13:00,
2013-03-11 21:18:00,53.9,41.9,29.91,SSE,160,1.7,3.4,64,0.00,,,0.00,WSDL version 420,2013-03-12 04:18:00,
2013-03-11 21:23:00,53.7,42.0,29.91,South,186,2.5,4.0,65,0.00,,,0.00,WSDL version 420,2013-03-12 04:23:00,
2013-03-11 21:28:00,53.5,42.8,29.91,SSW,195,2.9,4.3,68,0.00,,,0.00,WSDL version 420,2013-03-12 04:28:00,
2013-03-11 21:33:00,53.3,43.3,29.91,South,180,2.4,6.0,69,0.00,,,0.00,WSDL version 420,2013-03-12 04:33:00,
2013-03-11 21:38:00,53.1,43.4,29.91,SSW,208,3.2,6.0,70,0.00,,,0.00,WSDL version 420,2013-03-12 04:38:00,
2013-03-11 21:43:00,52.9,44.0,29.91,SSW,210,4.1,6.0,72,0.00,,,0.00,WSDL version 420,2013-03-12 04:43:00,
2013-03-11 21:48:00,52.7,44.3,29.91,South,186,2.6,6.0,73,0.00,,,0.00,WSDL version 420,2013-03-12 04:48:00,
2013-03-11 21:53:00,52.6,44.2,29.91,South,185,2.3,4.0,73,0.00,,,0.00,WSDL version 420,2013-03-12 04:53:00,
2013-03-11 21:58:00,52.5,43.9,29.91,SSW,199,1.9,4.0,72,0.00,,,0.00,WSDL version 420,2013-03-12 04:58:00,
2013-03-11 22:03:00,52.5,43.5,29.91,SSE,168,2.2,4.0,71,0.00,,,0.00,WSDL version 420,2013-03-12 05:03:00,
2013-03-11 22:08:00,52.3,43.3,29.91,South,183,1.8,4.0,72,0.00,,,0.00,WSDL version 420,2013-03-12 05:08:00,
2013-03-11 22:13:00,52.3,43.5,29.91,SE,130,1.3,4.7,72,0.00,,,0.00,WSDL version 420,2013-03-12 05:13:00,
2013-03-11 22:18:00,52.1,43.2,29.91,SSE,163,0.0,4.7,71,0.00,,,0.00,WSDL version 420,2013-03-12 05:18:00,
2013-03-11 22:23:00,52.0,42.9,29.91,SSW,200,0.0,1.1,71,0.00,,,0.00,WSDL version 420,2013-03-12 05:23:00,
2013-03-11 22:28:00,52.0,43.1,29.91,SW,223,2.1,3.1,71,0.00,,,0.00,WSDL version 420,2013-03-12 05:28:00,
2013-03-11 22:33:00,52.0,43.2,29.91,SSW,211,3.2,4.9,73,0.00,,,0.00,WSDL version 420,2013-03-12 05:33:00,
2013-03-11 22:38:00,51.8,43.9,29.91,SSW,208,4.0,6.0,75,0.00,,,0.00,WSDL version 420,2013-03-12 05:38:00,
2013-03-11 22:43:00,51.7,44.2,29.91,SSW,197,2.4,6.0,76,0.00,,,0.00,WSDL version 420,2013-03-12 05:43:00,
2013-03-11 22:48:00,51.6,44.3,29.91,SSW,213,3.6,4.3,77,0.00,,,0.00,WSDL version 420,2013-03-12 05:48:00,
2013-03-11 22:53:00,51.4,44.8,29.91,SW,217,3.4,4.9,79,0.00,,,0.00,WSDL version 420,2013-03-12 05:53:00,
2013-03-11 22:58:00,51.3,45.3,29.91,SSW,203,3.3,4.9,80,0.00,,,0.00,WSDL version 420,2013-03-12 05:58:00,
2013-03-11 23:03:00,51.1,45.9,29.91,SW,222,3.8,6.3,83,0.00,,,0.00,WSDL version 420,2013-03-12 06:03:00,
2013-03-11 23:08:00,50.9,46.1,29.91,SSW,211,4.1,6.3,83,0.00,,,0.00,WSDL version 420,2013-03-12 06:08:00,
2013-03-11 23:13:00,50.8,46.6,29.91,SSW,195,5.1,7.6,87,0.00,,,0.00,WSDL version 420,2013-03-12 06:13:00,
2013-03-11 23:18:00,50.6,46.8,29.91,SSW,203,3.4,7.6,87,0.00,,,0.00,WSDL version 420,2013-03-12 06:18:00,
2013-03-11 23:23:00,50.5,47.3,29.91,SSW,194,5.3,8.7,90,0.00,,,0.00,WSDL version 420,2013-03-12 06:23:00,
2013-03-11 23:28:00,50.4,47.3,29.91,SW,218,2.2,8.7,89,0.00,,,0.00,WSDL version 420,2013-03-12 06:28:00,
2013-03-11 23:33:00,50.4,47.2,29.91,SW,214,3.5,5.6,89,0.00,,,0.00,WSDL version 420,2013-03-12 06:33:00,
2013-03-11 23:38:00,50.4,47.5,29.91,South,175,3.5,7.4,90,0.00,,,0.00,WSDL version 420,2013-03-12 06:38:00,
2013-03-11 23:43:00,50.2,47.3,29.91,South,169,2.3,7.4,89,0.00,,,0.00,WSDL version 420,2013-03-12 06:43:00,
2013-03-11 23:48:00,50.2,47.0,29.91,SSE,150,0.4,4.7,89,0.00,,,0.00,WSDL version 420,2013-03-12 06:48:00,
2013-03-11 23:53:00,50.2,46.6,29.91,SSW,208,1.5,3.6,87,0.00,,,0.00,WSDL version 420,2013-03-12 06:53:00,
2013-03-11 23:58:00,50.2,46.4,29.91,South,177,1.9,3.8,87,0.00,,,0.00,WSDL version 420,2013-03-12 06:58:00,